Flag for Germany Weather past 2 weeks in Bad Vilbel, Hesse, Germany

Now
46 °F

Clear.


Feels Like: 46 °F
Forecast: 47 / 68 °F
Wind: 2 mph from Northeast

Location: Frankfurt / M-Flughafen


UV Index: 3 (Moderate)

Visibility: 25 mi


Pressure: 29.70 "Hg

Humidity: 81%

Dew point: 40 °F

Location of Bad VilbelLocation

Historic Weather in Bad Vilbel

°F

Bad Vilbel temperature yesterday

Maximum temperature yesterday: 70 °F (at 4:00 PM)
Minimum temperature yesterday: 52 °F (at 4:00 AM)
Average temperature yesterday: 60 °F

Past Weeks' High & Low Weather Summary

 TemperatureHumidityPressure
High71 °F (Apr 7, 7:00 PM)95% (Apr 6, 6:00 AM)30.44 "Hg (Apr 6, 6:00 AM)
Low33 °F (Apr 16, 6:00 AM)26% (Apr 17, 6:00 PM)29.66 "Hg (Apr 20, 7:00 PM)
Average54 °F60%30.07 "Hg
* Reported Apr 6 4:00 AM — Apr 21 4:00 AM, Bad Vilbel, Weather by CustomWeather, © 2014

Note: Actual official high and low records may vary slightly from our data, if they occured in-between our weather recording intervals... More about our weather records

Advertising

Historic Weather Conditions — Data for Previous 24 hours

 ConditionsComfort  
Time TempWeatherWind HumidityBarometerVisibility
4:00 AM
Apr 21
46 °FClear.2 mph81%29.70 "Hg25 mi
3:00 AM47 °FClear.2 mph78%29.71 "Hg25 mi
2:00 AM51 °FClear.2 mph71%29.72 "Hg28 mi
1:00 AM52 °FPassing clouds.2 mph69%29.72 "Hg28 mi
12:00 AM54 °FPassing clouds.3 mph63%29.72 "Hg28 mi
11:00 PM
Apr 20
58 °FPassing clouds.3 mph52%29.72 "Hg28 mi
10:00 PM60 °FPassing clouds.2 mph47%29.71 "Hg28 mi
9:00 PM62 °FPassing clouds.3 mph42%29.69 "Hg28 mi
8:00 PM66 °FScattered clouds.2 mph36%29.67 "Hg28 mi
7:00 PM68 °FScattered clouds.5 mph33%29.66 "Hg28 mi
6:00 PM68 °FScattered clouds.5 mph34%29.67 "Hg31 mi
4:00 PM70 °FScattered clouds.5 mph34%29.68 "Hg25 mi
3:00 PM67 °FScattered clouds.5 mph38%29.70 "Hg25 mi
2:00 PM66 °FScattered clouds.5 mph40%29.70 "Hg25 mi
1:00 PM66 °FScattered clouds.6 mph44%29.72 "Hg16 mi
12:00 PM63 °FScattered clouds.5 mph49%29.73 "Hg16 mi
11:00 AM63 °FPassing clouds.5 mph52%29.74 "Hg11 mi
10:00 AM61 °FPassing clouds.5 mph60%29.75 "Hg9 mi
9:00 AM58 °FPassing clouds.3 mph68%29.75 "Hg7 mi
8:00 AM55 °FPassing clouds.3 mph77%29.75 "Hg7 mi
7:00 AM53 °FScattered clouds.3 mph84%29.75 "Hg7 mi
6:00 AM53 °FPassing clouds.3 mph84%29.75 "Hg12 mi
5:00 AM52 °FClear.3 mph85%29.76 "Hg16 mi
Weather by CustomWeather, © 2014

See weather overview